Flag for Canada

Past Weather in Hall Beach, Nunavut, Canada — Yesterday and Last 2 Weeks

Now
30 °F

Passing clouds.


Feels Like: 23 °F
Forecast: 34 / 29 °F
Wind: 7 mph from Northwest

Location: Hall Beach
Current Time: Sep 19, 2020 at 10:17:08 pm
Latest Report: Sep 19, 2020 at 9:54 pm
Visibility: 9 mi
Pressure29.75 "Hg
Humidity: 93%
Dew Point: 28 °F
Location of Hall BeachLocation

Past Weather in Hall Beach — Graph

°F

Hall Beach Temperature Yesterday

Maximum temperature yesterday: 34 °F (at 3:00 pm)
Minimum temperature yesterday: 28 °F (at 7:08 am)
Average temperature yesterday: 31 °F

High & Low Weather Summary for the Past Weeks

 TemperatureHumidityPressure
High43 °F (Sep 5, 5:00 pm)100% (Sep 4, 11:00 pm)30.07 "Hg (Sep 4, 11:00 pm)
Low28 °F (Sep 15, 5:00 am)56% (Sep 9, 3:00 pm)29.59 "Hg (Sep 18, 6:00 pm)
Average34 °F86%29.80 "Hg
* Reported Sep 4 9:00 pm — Sep 19 9:00 pm, Hall Beach. Weather by CustomWeather, © 2020

Note: Actual official high and low records may vary slightly from our data, if they occured in-between our weather recording intervals... More about our weather records

Hall Beach Weather History for the Previous 24 Hours

Scroll right to see more
 ConditionsComfort  
Time TempWeatherWind HumidityBarometerVisibility
9:00 pm
Sat, Sep 19
32 °FPassing clouds.9 mph87%29.74 "Hg9 mi
8:54 pm32 °FPassing clouds.10 mph87%29.74 "Hg9 mi
8:00 pm32 °FPassing clouds.13 mph87%29.73 "Hg10 mi
7:38 pm32 °FScattered showers. Passing clouds.10 mph87%29.72 "Hg10 mi
7:00 pm32 °FPartly sunny.9 mph93%29.71 "Hg10 mi
6:12 pm34 °FSnow flurries. Partly sunny.12 mph87%29.70 "Hg8 mi
6:00 pm34 °FScattered showers. Partly sunny.12 mph87%29.70 "Hg10 mi
5:00 pm34 °FScattered showers. Broken clouds.9 mph87%29.69 "Hg10 mi
4:32 pm34 °FLight snow. Partly sunny.10 mph93%29.67 "Hg8 mi
4:00 pm34 °FPartly sunny.7 mph93%29.67 "Hg10 mi
3:00 pm34 °FPartly sunny.9 mph87%29.66 "Hg10 mi
2:00 pm34 °FPartly sunny.12 mph87%29.64 "Hg10 mi
1:00 pm34 °FBroken clouds.10 mph87%29.63 "Hg10 mi
12:00 pm34 °FBroken clouds.12 mph87%29.62 "Hg10 mi
11:00 am34 °FBroken clouds.15 mph87%29.61 "Hg10 mi
10:00 am32 °FBroken clouds.9 mph100%29.60 "Hg10 mi
9:00 am32 °FLight snow. Mostly cloudy.9 mph100%29.60 "Hg10 mi
8:00 am30 °FLight snow. Broken clouds.9 mph100%29.60 "Hg10 mi
7:35 am32 °FLight snow. Overcast.9 mphN/A29.60 "Hg6 mi
7:00 am30 °FLight snow. Overcast.8 mphN/A29.60 "Hg4 mi
6:00 am32 °FLight snow. Overcast.9 mphN/A29.60 "Hg5 mi
5:00 am30 °FLight snow. Overcast.8 mphN/A29.60 "Hg4 mi
4:55 am30 °FLight snow. Overcast.8 mph100%29.60 "Hg5 mi
4:00 am32 °FLight snow. Overcast.10 mph93%29.60 "Hg9 mi
3:07 am32 °FLight snow. Overcast.8 mph100%29.60 "Hg9 mi
2:42 am32 °FMostly cloudy.7 mph100%29.60 "Hg9 mi
2:35 am32 °FLight snow. Mostly cloudy.7 mph100%29.60 "Hg7 mi
2:08 am32 °FOvercast.7 mph100%29.60 "Hg9 mi
1:57 am32 °FLight snow. Overcast.9 mph100%29.59 "Hg9 mi
1:00 am30 °FPassing clouds.9 mph100%29.59 "Hg9 mi
12:29 am30 °FPartly cloudy.8 mph100%29.59 "Hg9 mi
12:24 am30 °FPassing clouds.8 mph100%29.59 "Hg9 mi
12:00 am30 °FPassing clouds.9 mph100%29.59 "Hg9 mi
11:00 pm
Fri, Sep 18
30 °FPassing clouds.8 mphN/A29.59 "Hg9 mi
10:04 pm32 °FPassing clouds.10 mph100%29.59 "Hg9 mi
Weather by CustomWeather, © 2020

See weather overview